Regional Weather Roundup
Issued by NWS Charleston, SC

Current Version | Previous Version | Graphics & Text | Print | Product List | Glossary On
Versions: 1 2 3 4 5 6 7 8 9 10 11 12 13 14 15 16 17 18 19 20 21 22 23 24 25 26 27 28 29 30 31 32 33 34 35 36 37 38 39 40 41 42 43 44 45 46 47 48 49 50
755
ASUS42 KCHS 241613
RWRCHS

REGIONAL WEATHER ROUNDUP
NATIONAL WEATHER SERVICE CHARLESTON SC
1200 PM EDT TUE MAY 24 2016

NOTE: "FAIR" INDICATES FEW OR NO CLOUDS BELOW 12,000 FEET WITH NO
SIGNIFICANT WEATHER AND/OR OBSTRUCTIONS TO VISIBILITY.

NOT ALL STATIONS ARE QUALITY CONTROLLED. USE DATA WITH CAUTION...
ESPECIALLY DEWPOINT OBSERVATIONS.

SCZ027-030-031-034>040-042>050-241700-
...SOUTHEAST SOUTH CAROLINA...

CITY           SKY/WX    TMP DP  RH WIND       PRES   REMARKS
N CHARLESTON   MOSUNNY   79  51  37 VRB5      30.18R
WATERFRONT PRK   N/A     75  56  51 CALM      30.15R
MOUNT PLEASANT FAIR      79  52  38 CALM      30.18R
JOHNS ISLAND   FAIR      79  55  44 CALM      30.18R
PINOPOLIS        N/A     81  54  39 CALM      30.11R
MONCKS CORNER  PTSUNNY   77  43  29 SW7       30.18R
SUMMERVILLE    PTSUNNY   77  54  44 CALM      30.18S
BEAUFORT MCAS  MOSUNNY   79  58  48 VRB3      30.18R
BEAUFORT ARPT  FAIR      77  59  53 NE6       30.17R
HILTON HEAD IS MOSUNNY   79  63  57 NE7       30.19R
WALTERBORO     SUNNY     79  55  44 SE3       30.19R
ALLENDALE      FAIR      79  59  50 VRB5      30.16R

...SOUTHERN MIDLANDS AND PEE DEE...

CITY           SKY/WX    TMP DP  RH WIND       PRES   REMARKS
GEORGETOWN     FAIR      75  50  41 CALM      30.18R
KINGSTREE      FAIR      75  46  35 CALM      30.17R
ORANGEBURG     SUNNY     79  56  45 SW3       30.17S
BARNWELL       FAIR      81  61  50 S8        30.17R
AIKEN          FAIR      77  55  47 CALM      30.19S
MANNING        FAIR      73  50  43 SW6       30.18R
COLUMBIA       MOSUNNY   80  50  34 CALM      30.15S
SUMTER         SUNNY     76  50  39 NW6       30.15S
FLORENCE       SUNNY     78  53  41 MISG      30.16S
MYRTLE BEACH   SUNNY     75  52  43 SW7       30.17S
N MYRTLE BEACH SUNNY     76  53  44 CALM      30.15S

$$

GAZ063-065-086>088-099>101-113>116-118-119-134>141-150-241700-
...SOUTHEAST GEORGIA...

CITY           SKY/WX    TMP DP  RH WIND       PRES   REMARKS
SAVANNAH ARPT  MOSUNNY   81  59  47 VRB5      30.17R
HUNTER AAF     MOSUNNY   80  65  60 VRB3      30.14S
FORT STEWART   SUNNY     83  58  43 CALM      30.14R
STATESBORO     SUNNY     82  61  48 SW3G9     30.16R
SYLVANIA       SUNNY     82  61  49 S7        30.17S
CLAXTON        FAIR      82  61  48 S6        30.16S

...CSRA...CENTRAL AND FAR SOUTHEAST GEORGIA...

CITY           SKY/WX    TMP DP  RH WIND       PRES   REMARKS
THOMSON        SUNNY     79  63  57 CALM      30.21R
AUGUSTA-BUSH   SUNNY     79  60  52 SE5       30.15S
AUGUSTA-DANIEL SUNNY     78  58  49 CALM      30.17R
SWAINSBORO     FAIR      82  55  39 NW6       30.16R
VIDALIA        SUNNY     81  55  41 SW3       30.16S
EASTMAN        FAIR      83  50  31 CALM      30.18S
HAZLEHURST     FAIR      85  51  30 CALM      30.15S
ALMA           SUNNY     83  46  27 S3        30.15S
WAYCROSS       SUNNY     83  55  36 W5        30.15R
JESUP          FAIR      81  52  36 CALM      30.16R
BAXLEY         FAIR      84  52  32 SW3       30.15S
BRUNSWICK      MOSUNNY   88  54  31 S3        30.17R
SAINT SIMONS   PTSUNNY   81  65  58 E8        30.16R

$$

SCZ027-028-034-036>038-045-046-048>050-GAZ119-141-241700-
...LAKE AND SUPPLEMENTAL COASTAL OBSERVATIONS...

STATION/POSITION TIME  TEMP    WIND        PRES    WAVE   SWELL
                       AIR SEA DIR/SP/G            HT/PER HT/PER/DIR
                 (UTC) (F)     (DEG/KT/KT) (MB)    (FT/S) (FT/S/D)
WINYAH BAY       NOT AVBL
LAKE MURRAY      1500   80        CALM     1020.7F
ACE BASIN NERRS  NOT AVBL
FORT PULASKI     1500   73 75   70/ 10/ 11 1021.9R
SAPELO ISLAND    1500   80     230/  2     1021.0S

$$

ANZ835-935-AMZ111-154-330-350-352-354-370-450-454-472-241700-
...C-MAN AND BUOY OBSERVATIONS...

STATION/POSITION TIME  TEMP    WIND        PRES    WAVE   SWELL
                       AIR SEA DIR/SP/G            HT/PER HT/PER/DIR
                 (UTC) (F)     (DEG/KT/KT) (MB)    (FT/S) (FT/S/D)
BUOY 41004       NOT AVBL
BUOY 41008       1550   76 77   70/  6/  8 1021.8R   2/ 9   2/120/ 9
FOLLY BEACH CMAN 1600   72     110/  4/  5 1022.3R
CAPERS NEARSHORE 1508   71 74   60/  4/  6 1021.4R
FRIPP NEARSHORE  1508   72 75   90/  8/ 10 1020.8R


STATION/POSITION TIME  TEMP    WIND        PRES    WAVE   SWELL
                       AIR SEA DIR/SP/G            HT/PER HT/PER/DIR
                 (UTC) (F)     (DEG/KT/KT) (MB)    (FT/S) (FT/S/D)
5E ST. MARYS GA  1521      79                N/A     2/ 9
FRYING PAN BUOY  1500   69 76  350/  6/ 10 1020.6S
BUOY 41025       1550   67 79  270/ 12/ 16 1019.4R   4/10   3/ 60/10
CAPE LOOKOUT NC  1600   70     250/ 10/ 13 1019.9R
BUOY 41002       1550   74 78  280/ 10/ 14 1020.4R   4/10   3/ 20/10
BUOY 41010       1520   78 78   70/  8/  8 1021.0R
ST AUGUSTINE FL  1600   78 79  130/  8/  9 1022.0R


$$




USA.gov is the U.S. government's official web portal to all federal, state and local government web resources and services.